Regional Weather Roundup
Issued by NWS Portland, ME

Current Version | Previous Version | Text Only | Print | Product List | Glossary On
Versions: 1 2 3 4 5 6 7 8 9 10 11 12 13 14 15 16 17 18 19 20 21 22 23 24 25 26 27 28 29 30 31 32 33 34 35 36 37 38 39 40 41 42 43 44 45 46 47 48 49 50
000 ASUS41 KGYX 031210 RWRGYX WEATHER ROUNDUP FOR MAINE AND NEW HAMPSHIRE NATIONAL WEATHER SERVICE GRAY ME 700 AM EST SAT DEC 03 2016 MEZ002-005-006-010-012-015-018-020-021-024-026-027-029-031300- MAINE CITY SKY/WX TMP DP RH WIND PRES REMARKS PORTLAND PTCLDY 34 26 72 W9 29.75 6HR MIN TEMP: 33; 6HR MAX TEMP: 38; SANFORD CLEAR 36 28 73 W10 29.76 BAR HARBOR CLOUDY 34 31 88 VRB5 29.67 WISCASSET PTCLDY 34 28 79 W3 29.72R 6HR MIN TEMP: 33; 6HR MAX TEMP: 38; ROCKLAND CLOUDY 35 29 78 NW5 29.69 FRYEBURG MOCLDY 36 26 67 W6 29.75R 6HR MIN TEMP: 36; 6HR MAX TEMP: 37; LEWISTONAUBURN PTCLDY 36 28 73 NW8 29.72 AUGUSTA CLEAR 35 27 72 NW7 29.71R 6HR MIN TEMP: 34; 6HR MAX TEMP: 36; WATERVILLE PTCLDY 35 27 72 N10 29.68 BANGOR LGT SNOW 33 32 96 NW10 29.68R FOG 6HR MIN TEMP: 33; 6HR MAX TEMP: 37; 6HR PCP: TRACE; GREENVILLE N/A 29 28 96 NW13G23 29.64R WCI 19 6HR MIN TEMP: 29; 6HR MAX TEMP: 31; 6HR PCP: 0.03; MILLINOCKET CLOUDY 32 28 85 N9 29.70R 6HR MIN TEMP: 30; 6HR MAX TEMP: 33; 6HR PCP: 0.01; HOULTON CLOUDY 30 29 96 N8 29.67R FOG 6HR MIN TEMP: 30; 6HR MAX TEMP: 32; 6HR PCP: 0.02; PRESQUE ISLE FLURRIES 27 26 96 N12 29.71R WCI 17 6HR PCP: TRACE; FRENCHVILLE NOT AVBL CARIBOU CLOUDY 28 24 85 N9 29.70R 6HR MIN TEMP: 28; 6HR MAX TEMP: 30; 6HR PCP: 0.01; $$ NHZ002-005-008-009-011-012-014-031300- NEW HAMPSHIRE CITY SKY/WX TMP DP RH WIND PRES REMARKS PORTSMOUTH PTCLDY 37 27 67 NW9 29.78R ROCHESTER CLEAR 36 26 67 NW10G20 29.76 6HR MIN TEMP: 36; 6HR MAX TEMP: 37; NASHUA MOCLDY 37 26 64 NW10 29.83 MANCHESTER PTCLDY 37 26 64 W9 29.80R 6HR MIN TEMP: 36; 6HR MAX TEMP: 37; CONCORD CLOUDY 36 27 69 CALM 29.81 6HR MIN TEMP: 31; 6HR MAX TEMP: 37; LACONIA CLOUDY 36 28 73 W8 29.80R PLYMOUTH N/A 35 31 85 NW12G17 29.79R BERLIN CLOUDY 33 28 81 W5 29.73R 6HR MIN TEMP: 33; 6HR MAX TEMP: 33; 6HR PCP: TRACE; WHITEFIELD CLOUDY 33 27 78 SW7 29.78R 6HR MIN TEMP: 33; 6HR MAX TEMP: 34; 6HR PCP: TRACE; JAFFREY MOCLDY 34 24 67 W7 29.81R 6HR MIN TEMP: 34; 6HR MAX TEMP: 35; KEENE CLOUDY 36 25 64 SW3 29.85 LEBANON CLOUDY 36 28 73 CALM 29.83R 6HR MIN TEMP: 33; 6HR MAX TEMP: 37; MT WASHINGTON SNOWSHWR 12 12 100 NW49G70 N/A VSB 0 WCI -14 6HR MIN TEMP: 12; 6HR MAX TEMP: 14; 6HR PCP: 0.25; $$ VTZ005-007-008-031300- VERMONT CITY SKY/WX TMP DP RH WIND PRES REMARKS ST JOHNSBURY N/A 35 30 82 MISG 29.80R MONTPELIER FLURRIES 31 30 96 NW10G17 29.86R BURLINGTON FLURRIES 37 29 72 NW15 29.88R $$ MAZ007-012-024-CTZ003-RIZ002-NYZ038-NYZ072-031300- SOUTHERN NEW ENGLAND AND NY CITY SKY/WX TMP DP RH WIND PRES REMARKS BOSTON MOCLDY 38 27 64 W16 29.81R WORCESTER CLEAR 34 24 67 W10 29.81R NANTUCKET CLEAR 40 27 59 NW22G29 29.80R PROVIDENCE MOCLDY 39 25 57 W18G26 29.84 HARTFORD MOCLDY 38 25 59 N15G22 29.90 ALBANY MOCLDY 37 26 64 NW10G24 29.95R NEW YORK CITY PTCLDY 44 28 53 NW17 29.98R $$ ANZ081-ANZ082-ANZ150-NHZ014-MEZ023>029-031300- COASTAL MARINE OBSERVATIONS STATION/POSITION TIME TEMP WIND PRES WAVE AIR SEA DIR/SP/G HT/PER (UTC) (F) (DEG/KT/KT) (MB) (FT/S) MOUNT DESERT ROC 1200 40 1003.8R MATINICUS ROCK 1100 41 300/ 25/ 30 1003.7R ISLE OF SHOALS 1100 39 290/ 25/ 29 1006.4F JEFFREYS LEDGE 1108 51 N/A 6/ 5 CASHES LEDGE BUO 1150 43 51 290/ 23/ 29 1005.2R 6/ 6 GEORGES BANK BUO 1150 47 53 1003.0R 10/ 8 $$ .............KEY.............. WCI - WIND CHILL TC - TEMPERATURE IN CELSIUS VSB - VISIBILITY IN MILES HX - HEAT INDEX FAIR- INDICATES FEW OR NO CLOUDS BELOW 12,000 FT, WITH NO SIGNIFICANT WEATHER AND/OR OBSTRUCTIONS TO VISIBILITY.

USA.gov is the U.S. government's official web portal to all federal, state and local government web resources and services.